STARLINK-1553, 46348

Orbit data source: Space-Track

STARLINK-1553, 46348 is a payload satellite owned by SpaceX/Seattle (US) in LEO that was launched on Thu, 03 Sep 2020 UTC via an FALCON 9 launch vehicle from the Air Force Eastern Test Range (AFETR). Payload-class satellites include a variety of spacecraft equipped with specific instruments for various scientific and technological missions. These include communications satellites like Starlink; space stations such as the ISS; scientific satellites like the Hubble; Earth observation satellites from companies like Planet Labs, Umbra, and HawkEye 360; GPS; miniature CubeSats for education and research; and military/defense satellites.

Loading next visibility...
Identifier
46348, 2020-062Z
Orbit
LEO
Country
Flag of USUS
Related business
Manufacturer
SpaceX/Seattle
Mission
Partially operational Commercial Communications
Bus & Motor
STARLINK, Unknown motor
Mass
260 kg wet, ~248 kg dry
Launch date (UTC)
2020-09-03 (5 years ago)
Launch vehicle
FALCON 9
Launch site
Air Force Eastern Test Range (AFETR)
Object type
Payload
Rocket body
Debris
Shape & HBR
Box + 1 Pan, 10.1 m
Radar Cross Section
13.562 m², Large (>1 m²)

Expand to show TLE details & history
Last TLE update: 18 hours ago

TLE from 18 hours ago
0 STARLINK-1553
1 46348U 20062Z   25286.66443337  .00081802  00000-0  31409-2 0  9992
2 46348  53.0400 273.7616 0007697  31.8091 328.3370 15.25736596282751
Epoch: 2025-10-13T15:56Z
TLE epoch observation values (Epoch: 2025-10-13T15:56:47.043Z)
Latitude
0.00001°
Longitude
12.10163°
Altitude
484.962 km
Speed
7.627 km/s
True Right ascension
18h 15m 02s
True Declination
0° 00' 00"
Sunlit
Object was in daylight at epoch
Visualization orbit readout
Latitude
Unknown
Longitude
Unknown
Altitude
Unknown
Speed
Unknown
Apparent Right ascension
Unknown
Apparent Declination
Unknown
Sunlit
N/A
Visualization observer readout
Local Sidereal Time
04:42:01
Azimuth
Unknown
Elevation
Unknown
Doppler factor
Unknown
Orbital elements
Apogee altitude
494.135 km
Perigee altitude
483.564 km
Semi-major axis
6,866.987 km
Eccentricity
0.00077
Inclination
53.04°
RAAN
273.7616°
Arg. of periapsis
31.8091°
True anomaly
328.29066°
Mean anomaly
328.337°
Eccentric anomaly
328.31384°
Mean motion
3.81412 °/min
Orbital period
94.39 mins
BSTAR
0.0031409
Loading maneuver chart data...
Computing Atmospheric mass density...
Loading historical data...
Loading historical data...
Loading historical data...
Loading historical data...
Loading historical data...
Loading historical data...
Loading historical data...

Documentation

Showing up to 5 results
|